SITRO-AIS 28

Last updated on Mon Sep 21 2026 00:03:45 GMT+0000 (Coordinated Universal Time)

1 59071U 24039U 26263.63330269 .00002377 00000+0 18368-3 0 9998 2 59071 95.3817 300.8976 0142201 353.8483 6.0990 14.94316305138994
UTC large
Height (km)
Speed (km/s)
/
Latitude / Longitude
Inclination (degrees)
Orbital Period (minutes)
Azimuth
Elevation
Range (km)
Doppler Factor

Next 0 passes for location: London (51.5072 / 0.1276)

No passes found over London.
SITRO-AIS 28